Regional Weather Roundup
Issued by NWS

Home | Current Version | Previous Version | Text Only | Print | Product List | Glossary On
Versions: 1 2 3 4 5 6 7 8 9 10 11 12 13 14 15 16 17 18 19 20 21 22 23 24 25 26 27 28 29 30 31 32 33 34 35 36 37 38 39 40 41 42 43 44 45 46 47 48 49 50
000
ASUS43 KDTX 270410
RWRMI
MICHIGAN HOURLY REGIONAL WEATHER ROUNDUP
NATIONAL WEATHER SERVICE DETROIT/PONTIAC MI
1200 AM EDT WED JUL 27 2016

NOTE: "FAIR" INDICATES FEW OR NO CLOUDS BELOW 12,000 FEET WITH NO
SIGNIFICANT WEATHER AND/OR OBSTRUCTION TO VISIBILITY.

MIZ047>049-052>055-059>063-066>070-074>076-081>083-270500-
SOUTHEAST LOWER MICHIGAN

CITY           SKY/WX    TMP DP  RH WIND       PRES   REMARKS
ADRIAN         CLEAR     69  64  84 CALM      30.02F
ALMA           CLEAR     70  65  82 W3        30.01S
ANN ARBOR      CLEAR     65  63  93 CALM      30.01S
BAD AXE        CLEAR     66  58  77 CALM      29.99R
CARO           CLEAR     65  63  94 CALM      29.98S
DETROIT CITY   CLEAR     74  63  68 S5        30.00F
DETROIT        PTCLDY    73  61  65 CALM      30.01S
FLINT          CLEAR     73  63  70 CALM      30.00S
GROSSE ILE     CLEAR     75  66  73 S7        29.99F
HOWELL         CLEAR     71  61  70 W5        30.02R

CITY           SKY/WX    TMP DP  RH WIND       PRES   REMARKS
JACKSON        CLEAR     70  66  87 SW3       30.03R
LAMBERTVILLE   CLEAR     69  63  82 CALM      30.02S
LANSING        CLEAR     72  64  76 CALM      30.01S
LAPEER         FAIR      66  64  91 SE6       30.00S
MASON          CLEAR     73  64  73 W3        30.03R
MONROE         CLEAR     70  65  84 CALM      30.00S
MT. CLEMENS    CLEAR     74  61  63 SW6       29.98R
PONTIAC        CLEAR     74  62  66 S3        30.01R
PORT HURON     CLEAR     70  64  83 CALM      30.00R
TRI CITIES     CLEAR     71  64  78 W8        29.99R
MIDLAND        FAIR      68  62  81 CALM      29.99R
TROY           CLEAR     77  59  53 SW5       30.02S
SAGINAW HB     CLEAR     72  61  68 SW6       29.98S
$$
MIZ043>046-050>051-056>058-064>065-071>073-077>080-270500-
SOUTHWEST LOWER MICHIGAN

CITY           SKY/WX    TMP DP  RH WIND       PRES   REMARKS
BATTLE CREEK   CLEAR     70  67  90 CALM      30.03S
BENTON HARBOR  CLEAR     66  64  93 CALM      30.01S FOG
BIG RAPIDS     CLEAR     67  65  94 CALM      30.02R
COLDWATER      CLEAR     67  66  95 CALM      30.03R
FREMONT        FAIR      65  65 100 CALM      30.01R
HOLLAND        CLEAR     65  64  97 CALM      30.02S
GRAND RAPIDS   CLEAR     70  61  73 S3        30.02S
IONIA          FAIR      71  60  67 W3        30.01S
KALAMAZOO      CLEAR     69  64  84 CALM      30.03S
LUDINGTON      CLEAR     72  69  90 SW5       29.99F
MARSHALL       CLEAR     69  67  92 CALM      30.03R
MOUNT PLEASANT CLEAR     73  63  70 W3        30.00S
MUSKEGON         N/A     67  65  93 CALM      30.01S
SOUTH HAVEN    CLEAR     64  64  97 CALM      30.01S
$$
MIZ016>042-270500-
NORTHERN LOWER MICHIGAN

CITY           SKY/WX    TMP DP  RH WIND       PRES   REMARKS
ALPENA         CLEAR     67  64  90 S6        29.94F
BEAVER ISLAND  CLOUDY    72  66  82 SW13      29.93S
BELLAIRE       CLEAR     74  64  69 CALM      29.96S
CADILLAC       CLEAR     68  60  74 SW3       30.02S
CHARLEVOIX     PTCLDY    76  61  59 SW8       29.96F
FRANKFORT      CLEAR     73  65  75 SW3       29.98S
GAYLORD        CLEAR     71  60  68 SW5       29.99F
GRAYLING       CLEAR     71  61  70 SW5       30.00S
HARBOR SPRINGS PTCLDY    74  65  74 SW5       29.93S
HOUGHTON LAKE  CLEAR     75  62  64 W9        30.01S
MANISTEE       CLEAR     69  63  81 CALM      29.98F
OSCODA         CLEAR     68  61  78 NW7       29.95S
PELLSTON       PTCLDY    76  62  62 SW7       29.92F
ROGERS CITY    CLOUDY    73  59  62 SW6       29.93F
TRAVERSE CITY  CLEAR     76  60  57 SW5       29.94F
$$
MIZ007>008-015-270500-
EASTERN UPPER MICHIGAN

CITY           SKY/WX    TMP DP  RH WIND       PRES   REMARKS
KINROSS        CLOUDY    67  65  93 CALM      29.94R
MACKINAC ISLAN CLOUDY    71  64  77 W3        29.92R
NEWBERRY       MOCLDY    68  66  94 CALM      29.92S
S. S. MARIE    CLOUDY    68  64  87 NW3       29.93F
$$
MIZ004>006-011>014-085-270500-
CENTRAL UPPER MICHIGAN

CITY           SKY/WX    TMP DP  RH WIND       PRES   REMARKS
MANISTIQUE     MOCLDY    68  68 100 CALM      29.91F
ESCANABA       CLOUDY    70  64  83 W5        29.91F
MENOMINEE      CLEAR    N/A N/A N/A W5        29.94F
SAWYER-GWINN   MOCLDY    67  65  95 NW3       29.95F
$$
MIZ001>003-009>011-084-270500-
WESTERN UPPER MICHIGAN

CITY           SKY/WX    TMP DP  RH WIND       PRES   REMARKS
IRON MOUNTAIN  CLOUDY    69  64  84 W3        29.96S
HOUGHTON       PTCLDY    68  63  84 NW9       29.94S
IRONWOOD       CLOUDY    66  64  94 CALM      29.95S
$$

ABBREVIATIONS USED IN REMARKS
   TC - TEMPERATURE IN CELSIUS
  WCI - WIND CHILL INDEX
   HX - HEAT INDEX
  VSB - VISIBILITY




USA.gov is the U.S. government's official web portal to all federal, state and local government web resources and services.